| time (UTC) | temp C | wind direction | speed KPH | gust KPH | rain 1hr cm | rain 24hr cm | rain mn cm | humidity % | barometer mb |
| 20260504045507 | 5 | 351 | 0.0 | 4.8 | 0.00 | 0.00 | 0.00 | 68 | 1010.8 |
| 20260504045012 | 5 | 331 | 1.6 | 4.8 | 0.00 | 0.00 | 0.00 | 65 | 1010.8 |
| 20260504044534 | 6 | 339 | 0.0 | 4.8 | 0.00 | 0.00 | 0.00 | 65 | 1010.8 |
| 20260504044008 | 6 | 331 | 1.6 | 4.8 | 0.00 | 0.00 | 0.00 | 65 | 1010.8 |
| 20260504043506 | 6 | 325 | 0.0 | 3.2 | 0.00 | 0.00 | 0.00 | 64 | 1010.7 |
| 20260504043020 | 6 | 325 | 1.6 | 6.4 | 0.00 | 0.00 | 0.00 | 63 | 1010.7 |
| 20260504042508 | 6 | 345 | 1.6 | 6.4 | 0.00 | 0.00 | 0.00 | 62 | 1010.8 |
| 20260504042009 | 6 | 300 | 1.6 | 8.0 | 0.00 | 0.00 | 0.00 | 62 | 1010.8 |
| 20260504041520 | 6 | 315 | 1.6 | 8.0 | 0.00 | 0.00 | 0.00 | 61 | 1010.8 |
| 20260504041009 | 6 | 348 | 0.0 | 6.4 | 0.00 | 0.00 | 0.00 | 61 | 1010.7 |
| 20260504040512 | 6 | 360 | 1.6 | 8.0 | 0.00 | 0.00 | 0.00 | 61 | 1010.8 |
| 20260504040020 | 6 | 345 | 1.6 | 8.0 | 0.00 | 0.00 | 0.00 | 62 | 1010.7 |
| 20260504035513 | 6 | 344 | 1.6 | 6.4 | 0.00 | 0.00 | 0.00 | 62 | 1010.7 |
| 20260504035007 | 6 | 350 | 1.6 | 8.0 | 0.00 | 0.00 | 0.00 | 63 | 1010.7 |
| 20260504034538 | 6 | 315 | 1.6 | 8.0 | 0.00 | 0.00 | 0.00 | 65 | 1010.6 |
| 20260504034011 | 6 | 5 | 3.2 | 8.0 | 0.00 | 0.00 | 0.00 | 65 | 1010.6 |
| 20260504033513 | 5 | 13 | 1.6 | 6.4 | 0.00 | 0.00 | 0.00 | 66 | 1010.6 |
| 20260504033029 | 5 | 340 | 3.2 | 6.4 | 0.00 | 0.00 | 0.00 | 68 | 1010.6 |
| 20260504032510 | 5 | 5 | 1.6 | 4.8 | 0.00 | 0.00 | 0.00 | 69 | 1010.6 |
| 20260504032010 | 5 | 336 | 1.6 | 4.8 | 0.00 | 0.00 | 0.00 | 72 | 1010.6 |
| 20260504031522 | 5 | 336 | 0.0 | 3.2 | 0.00 | 0.00 | 0.00 | 71 | 1010.5 |
| 20260504031007 | 5 | 329 | 0.0 | 3.2 | 0.00 | 0.00 | 0.00 | 70 | 1010.6 |
| 20260504030504 | 5 | 336 | 0.0 | 3.2 | 0.00 | 0.00 | 0.00 | 68 | 1010.5 |
| 20260504030003 | 5 | 336 | 0.0 | 1.6 | 0.00 | 0.00 | 0.00 | 67 | 1010.6 |
| 20260504025503 | 6 | 340 | 0.0 | 3.2 | 0.00 | 0.00 | 0.00 | 66 | 1010.6 |
| 20260504025003 | 6 | 337 | 0.0 | 3.2 | 0.00 | 0.00 | 0.00 | 66 | 1010.7 |
| 20260504024510 | 6 | 344 | 0.0 | 4.8 | 0.00 | 0.00 | 0.00 | 64 | 1010.7 |
| 20260504024002 | 6 | 336 | 0.0 | 6.4 | 0.00 | 0.00 | 0.00 | 64 | 1010.7 |
| 20260504023507 | 6 | 335 | 1.6 | 6.4 | 0.00 | 0.00 | 0.00 | 63 | 1010.7 |
| 20260504023009 | 6 | 331 | 0.0 | 6.4 | 0.00 | 0.00 | 0.00 | 64 | 1010.7 |
| 20260504022504 | 7 | 346 | 0.0 | 4.8 | 0.00 | 0.00 | 0.00 | 62 | 1010.7 |
| 20260504022004 | 7 | 11 | 1.6 | 6.4 | 0.00 | 0.00 | 0.00 | 60 | 1010.7 |
| 20260504021522 | 7 | 330 | 1.6 | 6.4 | 0.00 | 0.00 | 0.00 | 61 | 1010.7 |
| 20260504021004 | 7 | 355 | 1.6 | 6.4 | 0.00 | 0.00 | 0.00 | 61 | 1010.6 |
| 20260504020506 | 7 | 355 | 1.6 | 8.0 | 0.00 | 0.00 | 0.00 | 60 | 1010.7 |
| 20260504020013 | 7 | 333 | 1.6 | 8.0 | 0.00 | 0.00 | 0.00 | 60 | 1010.7 |
| 20260504015503 | 7 | 341 | 1.6 | 6.4 | 0.00 | 0.00 | 0.00 | 60 | 1010.7 |
| 20260504015003 | 7 | 350 | 1.6 | 6.4 | 0.00 | 0.00 | 0.00 | 61 | 1010.6 |
| 20260504014505 | 7 | 350 | 0.0 | 6.4 | 0.00 | 0.00 | 0.00 | 60 | 1010.6 |
| 20260504014003 | 7 | 355 | 0.0 | 3.2 | 0.00 | 0.00 | 0.00 | 60 | 1010.6 |
| 20260504013503 | 7 | 5 | 0.0 | 4.8 | 0.00 | 0.00 | 0.00 | 59 | 1010.6 |
| 20260504013010 | 7 | 355 | 0.0 | 4.8 | 0.00 | 0.00 | 0.00 | 59 | 1010.5 |
| 20260504012504 | 7 | 352 | 0.0 | 0.0 | 0.00 | 0.00 | 0.00 | 58 | 1010.5 |
| 20260504012008 | 7 | 338 | 0.0 | 4.8 | 0.00 | 0.00 | 0.00 | 57 | 1010.4 |
| 20260504011513 | 8 | 333 | 0.0 | 4.8 | 0.00 | 0.00 | 0.00 | 57 | 1010.4 |
| 20260504011008 | 8 | 355 | 1.6 | 6.4 | 0.00 | 0.00 | 0.00 | 57 | 1010.4 |
| 20260504010504 | 8 | 322 | 1.6 | 6.4 | 0.00 | 0.00 | 0.00 | 57 | 1010.4 |
| 20260504010009 | 8 | 17 | 1.6 | 6.4 | 0.00 | 0.00 | 0.00 | 57 | 1010.4 |
| 20260504005503 | 8 | 340 | 1.6 | 4.8 | 0.00 | 0.00 | 0.00 | 55 | 1010.4 |
| 20260504005003 | 8 | 329 | 0.0 | 4.8 | 0.00 | 0.00 | 0.00 | 57 | 1010.4 |
| 20260504004513 | 8 | 326 | 0.0 | 4.8 | 0.00 | 0.00 | 0.00 | 55 | 1010.3 |
| 20260504004005 | 9 | 336 | 0.0 | 4.8 | 0.00 | 0.00 | 0.00 | 53 | 1010.3 |
| 20260504003503 | 10 | 336 | 0.0 | 4.8 | 0.00 | 0.00 | 0.00 | 51 | 1010.2 |
| 20260504003007 | 10 | 336 | 1.6 | 6.4 | 0.00 | 0.00 | 0.00 | 48 | 1010.2 |
| 20260504002504 | 10 | 333 | 1.6 | 12.9 | 0.00 | 0.00 | 0.00 | 48 | 1010.1 |
| 20260504002004 | 10 | 321 | 1.6 | 12.9 | 0.00 | 0.00 | 0.00 | 48 | 1010.1 |
| 20260504001512 | 11 | 331 | 0.0 | 8.0 | 0.00 | 0.00 | 0.00 | 47 | 1010.1 |
| 20260504001005 | 11 | 355 | 1.6 | 12.9 | 0.00 | 0.00 | 0.00 | 44 | 1010.0 |
| 20260504000508 | 11 | 360 | 3.2 | 12.9 | 0.00 | 0.00 | 0.00 | 43 | 1009.9 |
| 20260504000008 | 11 | 334 | 3.2 | 11.3 | 0.00 | 0.00 | 0.00 | 42 | 1010.0 |
| 20260503235507 | 12 | 37 | 3.2 | 8.0 | 0.00 | 0.00 | 0.00 | 42 | 1009.9 |
| 20260503235004 | 12 | 315 | 1.6 | 16.1 | 0.00 | 0.00 | 0.00 | 43 | 1009.9 |
| 20260503234508 | 12 | 10 | 3.2 | 16.1 | 0.00 | 0.00 | 0.00 | 41 | 1009.9 |
| 20260503234006 | 12 | 5 | 6.4 | 16.1 | 0.00 | 0.00 | 0.00 | 41 | 1009.9 |
| 20260503233507 | 12 | 32 | 4.8 | 16.1 | 0.00 | 0.00 | 0.00 | 41 | 1010.0 |
| 20260503233007 | 12 | 5 | 1.6 | 16.1 | 0.00 | 0.00 | 0.00 | 42 | 1009.9 |
| 20260503232507 | 12 | 333 | 6.4 | 17.7 | 0.00 | 0.00 | 0.00 | 41 | 1009.9 |
| 20260503232004 | 12 | 33 | 3.2 | 17.7 | 0.00 | 0.00 | 0.00 | 40 | 1009.9 |
| 20260503231508 | 12 | 20 | 6.4 | 16.1 | 0.00 | 0.00 | 0.00 | 40 | 1009.8 |
| 20260503231005 | 12 | 32 | 1.6 | 16.1 | 0.00 | 0.00 | 0.00 | 40 | 1009.8 |
| 20260503230505 | 12 | 319 | 4.8 | 16.1 | 0.00 | 0.00 | 0.00 | 40 | 1009.9 |
| 20260503230011 | 12 | 360 | 8.0 | 24.1 | 0.00 | 0.00 | 0.00 | 40 | 1009.9 |
| 20260503225505 | 12 | 298 | 9.7 | 24.1 | 0.00 | 0.00 | 0.00 | 41 | 1009.9 |
| 20260503225006 | 13 | 321 | 3.2 | 22.5 | 0.00 | 0.00 | 0.00 | 41 | 1009.9 |
| 20260503224511 | 13 | 330 | 6.4 | 22.5 | 0.00 | 0.00 | 0.00 | 41 | 1009.9 |
| 20260503224009 | 12 | 78 | 4.8 | 17.7 | 0.00 | 0.00 | 0.00 | 40 | 1009.8 |
| 20260503223511 | 12 | 332 | 4.8 | 17.7 | 0.00 | 0.00 | 0.00 | 41 | 1009.9 |
| 20260503223010 | 12 | 42 | 8.0 | 16.1 | 0.00 | 0.00 | 0.00 | 40 | 1009.8 |
| 20260503222508 | 12 | 34 | 3.2 | 16.1 | 0.00 | 0.00 | 0.00 | 41 | 1009.8 |
| 20260503222010 | 13 | 319 | 8.0 | 16.1 | 0.00 | 0.00 | 0.00 | 39 | 1009.8 |
| 20260503221522 | 13 | 46 | 4.8 | 16.1 | 0.00 | 0.00 | 0.00 | 41 | 1009.9 |
| 20260503221005 | 13 | 30 | 1.6 | 16.1 | 0.00 | 0.00 | 0.00 | 41 | 1009.9 |
| 20260503220510 | 13 | 331 | 3.2 | 19.3 | 0.00 | 0.00 | 0.00 | 42 | 1010.0 |
| 20260503220012 | 13 | 24 | 8.0 | 19.3 | 0.00 | 0.00 | 0.00 | 39 | 1010.0 |
| 20260503215506 | 13 | 317 | 6.4 | 19.3 | 0.00 | 0.00 | 0.00 | 39 | 1010.0 |
| 20260503215008 | 13 | 172 | 6.4 | 19.3 | 0.00 | 0.00 | 0.00 | 39 | 1009.9 |
| 20260503214514 | 14 | 360 | 6.4 | 19.3 | 0.00 | 0.00 | 0.00 | 38 | 1009.9 |
| 20260503214015 | 13 | 77 | 3.2 | 24.1 | 0.00 | 0.00 | 0.00 | 41 | 1009.9 |
| 20260503213509 | 13 | 36 | 8.0 | 24.1 | 0.00 | 0.00 | 0.00 | 39 | 1009.9 |
| 20260503213027 | 13 | 339 | 4.8 | 19.3 | 0.00 | 0.00 | 0.00 | 39 | 1009.8 |
| 20260503212510 | 13 | 76 | 3.2 | 19.3 | 0.00 | 0.00 | 0.00 | 39 | 1009.8 |
| 20260503212010 | 14 | 314 | 6.4 | 17.7 | 0.00 | 0.00 | 0.00 | 38 | 1009.8 |
| 20260503211520 | 14 | 17 | 1.6 | 17.7 | 0.00 | 0.00 | 0.00 | 41 | 1009.8 |
| 20260503211011 | 13 | 15 | 4.8 | 20.9 | 0.00 | 0.00 | 0.00 | 42 | 1009.8 |
| 20260503210505 | 13 | 34 | 6.4 | 20.9 | 0.00 | 0.00 | 0.00 | 37 | 1009.8 |
| 20260503210014 | 13 | 14 | 4.8 | 22.5 | 0.00 | 0.00 | 0.00 | 40 | 1009.8 |
| 20260503205507 | 13 | 9 | 6.4 | 22.5 | 0.00 | 0.00 | 0.00 | 37 | 1009.8 |
| 20260503205015 | 13 | 47 | 9.7 | 22.5 | 0.00 | 0.00 | 0.00 | 37 | 1009.9 |
| 20260503204523 | 13 | 326 | 8.0 | 22.5 | 0.00 | 0.00 | 0.00 | 37 | 1009.9 |
| 20260503204008 | 14 | 10 | 6.4 | 24.1 | 0.00 | 0.00 | 0.00 | 37 | 1009.9 |
| 20260503203506 | 14 | 97 | 4.8 | 24.1 | 0.00 | 0.00 | 0.00 | 39 | 1009.9 |
| 20260503203020 | 13 | 304 | 9.7 | 19.3 | 0.00 | 0.00 | 0.00 | 37 | 1009.9 |
| 20260503202514 | 14 | 27 | 8.0 | 17.7 | 0.00 | 0.00 | 0.00 | 36 | 1010.1 |
| 20260503202012 | 15 | 132 | 6.4 | 24.1 | 0.00 | 0.00 | 0.00 | 38 | 1010.2 |
| 20260503201528 | 15 | 60 | 6.4 | 27.4 | 0.00 | 0.00 | 0.00 | 39 | 1010.2 |
| 20260503201011 | 14 | 5 | 8.0 | 27.4 | 0.00 | 0.00 | 0.00 | 40 | 1010.1 |
| 20260503200507 | 14 | 45 | 3.2 | 19.3 | 0.00 | 0.00 | 0.00 | 41 | 1010.2 |
| 20260503200022 | 14 | 346 | 6.4 | 19.3 | 0.00 | 0.00 | 0.00 | 41 | 1010.2 |
| 20260503195508 | 13 | 24 | 3.2 | 19.3 | 0.00 | 0.00 | 0.00 | 40 | 1010.2 |
| 20260503195012 | 13 | 82 | 6.4 | 25.7 | 0.00 | 0.00 | 0.00 | 38 | 1010.2 |
| 20260503194527 | 13 | 355 | 8.0 | 25.7 | 0.00 | 0.00 | 0.00 | 38 | 1010.3 |
| 20260503194010 | 14 | 40 | 6.4 | 24.1 | 0.00 | 0.00 | 0.00 | 38 | 1010.4 |
| 20260503193506 | 14 | 19 | 6.4 | 24.1 | 0.00 | 0.00 | 0.00 | 37 | 1010.5 |
| 20260503193014 | 14 | 344 | 4.8 | 24.1 | 0.00 | 0.00 | 0.00 | 41 | 1010.6 |
| 20260503192506 | 14 | 114 | 3.2 | 19.3 | 0.00 | 0.00 | 0.00 | 44 | 1010.6 |
| 20260503192015 | 14 | 89 | 8.0 | 24.1 | 0.00 | 0.00 | 0.00 | 42 | 1010.8 |
| 20260503191521 | 13 | 284 | 9.7 | 24.1 | 0.00 | 0.00 | 0.00 | 39 | 1010.9 |
| 20260503191010 | 13 | 58 | 6.4 | 19.3 | 0.00 | 0.00 | 0.00 | 41 | 1010.8 |
| 20260503190507 | 13 | 342 | 4.8 | 19.3 | 0.00 | 0.00 | 0.00 | 39 | 1010.9 |
| 20260503190021 | 13 | 14 | 6.4 | 30.6 | 0.00 | 0.00 | 0.00 | 39 | 1010.9 |
| 20260503185506 | 13 | 57 | 11.3 | 30.6 | 0.00 | 0.00 | 0.00 | 41 | 1011.0 |
| 20260503185006 | 13 | 38 | 14.5 | 30.6 | 0.00 | 0.00 | 0.00 | 39 | 1011.0 |
| 20260503184522 | 13 | 102 | 4.8 | 22.5 | 0.00 | 0.00 | 0.00 | 44 | 1011.1 |
| 20260503184007 | 13 | 16 | 8.0 | 22.5 | 0.00 | 0.00 | 0.00 | 38 | 1011.0 |
| 20260503183517 | 13 | 18 | 4.8 | 16.1 | 0.00 | 0.00 | 0.00 | 42 | 1011.1 |
| 20260503183030 | 13 | 111 | 4.8 | 16.1 | 0.00 | 0.00 | 0.00 | 42 | 1011.2 |
| 20260503182509 | 13 | 98 | 4.8 | 27.4 | 0.00 | 0.00 | 0.00 | 42 | 1011.2 |
| 20260503182011 | 12 | 12 | 11.3 | 27.4 | 0.00 | 0.00 | 0.00 | 39 | 1011.2 |
| 20260503181528 | 12 | 352 | 1.6 | 19.3 | 0.00 | 0.00 | 0.00 | 42 | 1011.2 |
| 20260503181004 | 12 | 175 | 4.8 | 19.3 | 0.00 | 0.00 | 0.00 | 41 | 1011.2 |
| 20260503180504 | 12 | 34 | 6.4 | 27.4 | 0.00 | 0.00 | 0.00 | 42 | 1011.2 |
| 20260503180004 | 12 | 348 | 9.7 | 27.4 | 0.00 | 0.00 | 0.00 | 40 | 1011.3 |
| 20260503175504 | 12 | 9 | 6.4 | 25.7 | 0.00 | 0.00 | 0.00 | 40 | 1011.3 |
| 20260503175007 | 12 | 324 | 6.4 | 25.7 | 0.00 | 0.00 | 0.00 | 44 | 1011.3 |
| 20260503174507 | 12 | 50 | 8.0 | 25.7 | 0.00 | 0.00 | 0.00 | 44 | 1011.5 |
| 20260503174002 | 12 | 326 | 8.0 | 24.1 | 0.00 | 0.00 | 0.00 | 43 | 1011.5 |
| 20260503173502 | 12 | 40 | 4.8 | 22.5 | 0.00 | 0.00 | 0.00 | 42 | 1011.5 |
| 20260503173024 | 12 | 18 | 8.0 | 22.5 | 0.00 | 0.00 | 0.00 | 39 | 1011.5 |
| 20260503172502 | 12 | 5 | 4.8 | 19.3 | 0.00 | 0.00 | 0.00 | 41 | 1011.5 |
| 20260503172003 | 12 | 179 | 3.2 | 24.1 | 0.00 | 0.00 | 0.00 | 43 | 1011.5 |
| 20260503171512 | 12 | 20 | 6.4 | 24.1 | 0.00 | 0.00 | 0.00 | 42 | 1011.5 |
| 20260503171006 | 12 | 345 | 6.4 | 24.1 | 0.00 | 0.00 | 0.00 | 47 | 1011.5 |
| 20260503170503 | 12 | 10 | 4.8 | 33.8 | 0.00 | 0.00 | 0.00 | 43 | 1011.6 |
| 20260503151006 | 10 | 67 | 9.7 | 25.7 | 0.00 | 0.00 | 0.00 | 49 | 1012.7 |
| 20260503150512 | 9 | 97 | 1.6 | 30.6 | 0.00 | 0.00 | 0.00 | 55 | 1012.7 |
| 20260503131007 | 7 | 49 | 6.4 | 17.7 | 0.00 | 0.00 | 0.00 | 59 | 1013.2 |
| 20260503130509 | 7 | 19 | 4.8 | 16.1 | 0.00 | 0.00 | 0.00 | 61 | 1013.2 |
| 20260503110513 | 1 | 35 | 0.0 | 12.9 | 0.00 | 0.00 | 0.00 | 76 | 1012.6 |
| 20260503090505 | 2 | 123 | 3.2 | 16.1 | 0.00 | 0.03 | 0.00 | 71 | 1011.6 |
| 20260503081513 | 2 | 13 | 1.6 | 12.9 | 0.00 | 0.03 | 0.00 | 72 | 1011.5 |
| 20260503081007 | 2 | 122 | 0.0 | 1.6 | 0.00 | 0.03 | 0.00 | 72 | 1011.5 |
| 20260503080505 | 2 | 117 | 0.0 | 4.8 | 0.00 | 0.03 | 0.00 | 72 | 1011.4 |
| 20260503072506 | 2 | 113 | 0.0 | 6.4 | 0.00 | 0.03 | 0.00 | 72 | 1011.3 |
| 20260503072006 | 2 | 61 | 0.0 | 4.8 | 0.00 | 0.03 | 0.00 | 72 | 1011.3 |
| 20260503071505 | 2 | 123 | 0.0 | 4.8 | 0.00 | 0.03 | 0.00 | 72 | 1011.3 |
| 20260503071004 | 2 | 70 | 0.0 | 3.2 | 0.00 | 0.03 | 0.00 | 72 | 1011.3 |
| 20260503070504 | 2 | 35 | 0.0 | 4.8 | 0.00 | 0.03 | 0.00 | 73 | 1011.2 |
| 20260503055003 | 2 | 132 | 0.0 | 4.8 | 0.00 | 0.03 | 0.00 | 69 | 1011.3 |
| 20260503054513 | 2 | 67 | 1.6 | 3.2 | 0.00 | 0.03 | 0.00 | 70 | 1011.3 |
| 20260503054008 | 2 | 77 | 0.0 | 3.2 | 0.00 | 0.03 | 0.00 | 71 | 1011.2 |
| 20260503053509 | 2 | 76 | 0.0 | 3.2 | 0.00 | 0.05 | 0.00 | 73 | 1011.3 |
| 20260503053012 | 2 | 46 | 0.0 | 3.2 | 0.00 | 0.05 | 0.00 | 72 | 1011.3 |
| 20260503052505 | 2 | 96 | 0.0 | 1.6 | 0.00 | 0.05 | 0.00 | 73 | 1011.4 |
| 20260503052010 | 2 | 121 | 0.0 | 14.5 | 0.00 | 0.08 | 0.00 | 73 | 1011.3 |
| 20260503051512 | 2 | 146 | 1.6 | 14.5 | 0.00 | 0.08 | 0.00 | 71 | 1011.4 |
| 20260503051010 | 2 | 56 | 0.0 | 3.2 | 0.00 | 0.08 | 0.00 | 75 | 1011.5 |
| 20260503050505 | 2 | 34 | 0.0 | 3.2 | 0.00 | 0.08 | 0.00 | 79 | 1011.5 |
| 20260503050008 | 2 | 61 | 0.0 | 0.0 | 0.00 | 0.08 | 0.00 | 78 | 1011.5 |